Miscellaneous Local Product
Issued by NWS North Platte, NE

Home | Current Version | Previous Version | Text Only | Print | Product List | Glossary On
Versions: 1 2 3 4 5 6 7 8 9 10 11 12 13 14 15 16 17 18 19 20 21 22 23 24 25 26 27 28 29 30 31 32 33 34 35 36 37 38 39 40 41 42 43 44 45 46 47 48 49 50
749
AXUS43 KLBF 190610
MISLBF


WESTERN AND NORTH CENTRAL NEBRASKA HOURLY WEATHER ROUNDUP
NATIONAL WEATHER SERVICE NORTH PLATTE NE
1200 AM CST MON FEB 19 2018

NOTE: "FAIR" INDICATES FEW OR NO CLOUDS BELOW 12,000 FEET WITH NO
SIGNIFICANT WEATHER AND/OR OBSTRUCTIONS TO VISIBILITY.

NOTE: STATIONS NOT REPORTING VARIABLES SUCH AS SKY/WEATHER OR
PRESSURE ARE PROVIDED BY RAWS AND APRS NETWORKS AND ARE NOT UNDER
NATIONAL WEATHER SERVICE QUALITY CONTROL.

...OBSERVATIONS IN AND NEAR THE EASTERN PANHANDLE OF NEBRASKA...

CITY           SKY/WX    TMP DP  RH WIND       PRES   REMARKS
PINE RIDGE     LGT SNOW   8   3  80 N14G22    29.89R WCI  -8
GORDON         CLOUDY     8   3  78 N17G29    29.83R WCI -10
CHADRON        LGT SNOW   8   2  76 N16       29.91R WCI -10
ALLIANCE       LGT SNOW   9   5  84 N21       29.78R FOG     WCI -11
SIDNEY         LGT SNOW  12   8  84 N18       29.73R FOG     WCI  -6
$$

...OBSERVATIONS IN NORTHERN NEBRASKA AND FAR SOUTHERN SOUTH DAKOTA...

CITY           SKY/WX    TMP DP  RH WIND       PRES   REMARKS
WINNER         FLURRIES  15   9  76 N26       29.89R WCI  -4
VALENTINE      LGT SNOW  14   8  77 N18G26    29.86R WCI  -3
AINSWORTH      LGT SNOW  15  12  88 N22G31    29.81R WCI  -3
O`NEILL        CLOUDY    18  15  88 N22G32    29.77R WCI   1
THEDFORD       CLOUDY    16  12  83 N21G30    29.76R WCI  -1
BROKEN BOW     CLOUDY    21  18  88 N29G39    29.69R WCI   3
ORD            CLOUDY    21  18  88 N26G37    29.71R WCI   4
ALBION         CLOUDY    25  22  88 N16G25    29.69R WCI  12
$$

...OBSERVATIONS IN SOUTHWEST NEBRASKA AND FAR NORTHEAST COLORADO...

CITY           SKY/WX    TMP DP  RH WIND       PRES   REMARKS
WRAY           CLOUDY    23  19  86 MISG      29.68R
HOLYOKE        CLOUDY    21  18  86 N23G30    29.70R WCI   5
IMPERIAL       CLOUDY    20  17  88 N24G31    29.70R WCI   3
OGALLALA       FLURRIES  19  13  78 N24G30    29.74R WCI   1
NORTH PLATTE   CLOUDY    19  14  81 N23G35    29.71R WCI   2
MCCOOK         CLOUDY    25  22  88 N24G31    29.65R WCI   9
LEXINGTON      CLOUDY    25  22  88 N22G30    29.67R WCI  10
GOTHENBURG       N/A     21  18  88 N16         N/A  WCI   7
CALLAWAY         N/A     19  17  93 N22         N/A  WCI   2
$$

...OBSERVATIONS IN CENTRAL LINCOLN COUNTY AREA...

CITY           SKY/WX    TMP DP  RH WIND       PRES   REMARKS
N.P. AIRPORT   CLOUDY    19  14  81 N23G35    29.71R WCI   2
$$

...OBSERVATIONS ACROSS THE ROCKIES AND WESTERN HIGH PLAINS...

CITY           SKY/WX    TMP DP  RH WIND       PRES   REMARKS
RAPID CITY     LGT SNOW   4   1  88 N20       29.93R FOG     WCI -17
SCOTTSBLUFF    CLOUDY    12   4  70 N10       29.81R WCI  -1
CHEYENNE       LGT SNOW   9   8  96 N16G24    29.61R FOG     WCI  -8
DENVER         FRZ DRZL  23  21  92 NE15      29.64R VSB 3/4 WCI  10
BERTHOUD PASS  FAIR      18   7  62 SW22G29   29.59F WCI   0
COPPER MTN     CLOUDY    27   9  46 S21G26    29.60F WCI  13
MONARCH PASS   CLEAR     21  10  63 SW35G43   29.73F WCI   2
ASPEN          CLOUDY    41  17  38 S17G25    29.52F
LARAMIE        PTCLDY    16  13  88 W9        29.44F WCI   4
CASPER         CLOUDY     1  -3  83 NE12      29.77R FOG     WCI -16
$$

...OBSERVATIONS ACROSS THE NORTHERN PLAINS...

CITY           SKY/WX    TMP DP  RH WIND       PRES   REMARKS
BISMARCK       CLOUDY     8  -1  66 N8        30.13R WCI  -4
FARGO          FAIR       9   3  77 N18       30.05R WCI -10
PIERRE         LGT SNOW  10   7  87 N22       29.98R FOG     WCI -10
SIOUX FALLS    CLOUDY    19  14  81 N16       29.76S WCI   4
$$

...OBSERVATIONS ACROSS THE CENTRAL AND SOUTHERN PLAINS...

CITY           SKY/WX    TMP DP  RH WIND       PRES   REMARKS
OMAHA          CLOUDY    35  30  82 N15       29.66R WCI  25
GRAND ISLAND   CLOUDY    27  23  85 N29G36    29.65S WCI  11
KANSAS CITY    CLOUDY    52  48  86 S18G25    29.68S
WICHITA        CLOUDY    56  55  97 S22G29    29.60F
DODGE CITY     PTCLDY    64  38  38 SW20G30   29.50R
OKLAHOMA CITY  MOCLDY    60  58  92 S18       29.73F
DALLAS         CLOUDY    67  62  84 S17G23    29.85F
AMARILLO       CLEAR     58  41  53 SW16      29.70S
$$




USA.gov is the U.S. government's official web portal to all federal, state and local government web resources and services.